Regional Weather Roundup
Issued by NWS

Home | Current Version | Previous Version | Text Only | Print | Product List | Glossary On
Versions: 1 2 3 4 5 6 7 8 9 10 11 12 13 14 15 16 17 18 19 20 21 22 23 24 25 26 27 28 29 30 31 32 33 34 35 36 37 38 39 40 41 42 43 44 45 46 47 48 49 50
000
ASUS43 KLSX 280307
RWRMO

WEATHER SUMMARY FOR MISSOURI
NATIONAL WEATHER SERVICE SPRINGFIELD MO
900 PM CST TUE JAN 27 2015

NOTE: "FAIR" INDICATES FEW OR NO CLOUDS BELOW 12,000 FEET WITH NO
       SIGNIFICANT WEATHER AND/OR OBSTRUCTIONS TO VISIBILITY.
       CURRENT SKY AND/OR WEATHER CONDITIONS ARE NOT AVAILABLE FOR
       CHILLICOTHE AND FARMINGTON.

MOZ001>031-035>038-043-044-053-054-280400-
...NORTHERN AND WESTERN MISSOURI...

CITY           SKY/WX    TMP DP  RH WIND       PRES   REMARKS
KANSAS CTY INT CLEAR     43  32  65 SE14      30.08F
KANSAS C DTWN  CLEAR     45  31  58 E7        30.09F
LEE`S SUMMIT   CLEAR     43  31  62 SE8       30.10F
ST JOSEPH      CLEAR     43  32  65 SE12      30.09S
CHILLICOTHE      N/A     39  31  72 SE6       30.16R
KIRKSVILLE     CLEAR     31  29  92 E7        30.17F FOG     WCI  24

$$
MOZ066>068-077>081-088>096-101>105-280400-
...SOUTHWEST MISSOURI...

CITY           SKY/WX    TMP DP  RH WIND       PRES   REMARKS
SPRINGFIELD    CLEAR     43  28  55 SE8       30.11S
JOPLIN         CLEAR     49  26  41 E7        30.09S

$$
MOZ032>034-039>042-045>050-055>058-069>072-280400-
...CENTRAL MISSOURI...

CITY           SKY/WX    TMP DP  RH WIND       PRES   REMARKS
COLUMBIA       CLEAR     37  31  78 E9        30.16S
JEFFERSON CITY CLEAR     37  30  75 SE6       30.18R
ROLLA          CLEAR     37  29  72 E8        30.15S
SEDALIA        CLEAR     39  30  70 SE7       30.16R
WHITEMAN AFB   CLEAR     39  31  72 SE8       30.12S
WARRENSBURG    CLEAR     39  32  75 E7        30.13R
OSAGE BEACH    CLEAR     43  28  56 E6        30.15R

$$
MOZ051-052-059>065-280400-
...EAST CENTRAL MISSOURI...

CITY           SKY/WX    TMP DP  RH WIND       PRES   REMARKS
ST LOUIS INTL  CLEAR     32  26  78 E9        30.24S WCI  24
SPIRIT OF STL  CLEAR     30  26  85 E6        30.23R WCI  24
ST CHARLES     CLEAR     30  27  88 E5        30.24S WCI  25

$$
MOZ072>076-082>087-097>100-106>115-280400-
...SOUTH CENTRAL AND SOUTHEAST MISSOURI...

CITY           SKY/WX    TMP DP  RH WIND       PRES   REMARKS
CAPE GIRARDEAU CLEAR     35  30  82 E5        30.24R
FARMINGTON     CLEAR     34  27  75 MISG      30.25R
POPLAR BLUFF   CLEAR     39  31  72 E5        30.22R
WEST PLAINS    CLEAR     38  27  64 E3        30.16S

$$


USA.gov is the U.S. government's official web portal to all federal, state and local government web resources and services.